Central Illinois Regional Airport at Bloomington-normal Bloomington-normal US
ICAO: KBMI
IATA: BMI
Category: Large
Scheduled Services: Yes

Elevation: 871 ft
TransAlt. 18000 ft.

Airport Communications:
PEORIA APP/DEP:118.05
ASOS:135.35
ATIS:135.35
CTAF:124.6
GND:121.65
KANKAKEE RDO:108.2
BLOOMINGTON TWR:124.6
UNICOM:122.95

KBMI Zoom In..

Runways:

(A) RW 02 length 8000 ft width 150 ft
ILS 111.90 / hdg 18

(B) RW 11 length 6525 ft width 150 ft
---- / hdg 108

(C) RW 20 length 8000 ft width 150 ft
ILS 111.90 / hdg 198

(D) RW 29 length 6525 ft width 150 ft
ILS 108.30 / hdg 288

Location; KBMI
Day. 23 / Time. 06.56 Zulu
* Altimeter: 29.95
* Temperature: 18° c. 64.4°f.
* Wind from: 350° Speed 06 kn.
Dewpoint: 17° c.
Visibility: 8 Statute Miles.
Clouds: Clear (automated report).

KBMI 230656Z AUTO 35006KT 8SM CLR 18/17 A2995 RMK AO2 SLP157 T01780172


Wind From 350°
Speed 06 kn.

 
 
jpsmedia.com for Web Design worldairports.se 2018   terms of use